Time,TemperatureF,DewpointF,PressureIn,WindDirection,WindDirectionDegrees,WindSpeedMPH,WindSpeedGustMPH,Humidity,HourlyPrecipIn,Conditions,Clouds,dailyrainin,SoftwareType,DateUTC
2013-10-18 00:00:00,55.8,30.6,29.95,SSE,148,1.0,1.0,38,0.00,,---,0.00,VWS V14.01,2013-10-18 07:00:00,
2013-10-18 00:05:00,55.7,30.5,29.95,South,177,0.0,2.0,38,0.00,,---,0.00,VWS V14.01,2013-10-18 07:05:00,
2013-10-18 00:10:00,55.6,30.4,29.95,SSE,159,3.0,3.0,38,0.00,,---,0.00,VWS V14.01,2013-10-18 07:10:00,
2013-10-18 00:15:00,55.8,30.6,29.95,South,188,2.0,2.0,38,0.00,,---,0.00,VWS V14.01,2013-10-18 07:15:00,
2013-10-18 00:20:00,55.8,30.6,29.95,South,172,0.0,2.0,38,0.00,,---,0.00,VWS V14.01,2013-10-18 07:20:00,
2013-10-18 00:25:00,55.5,30.3,29.95,South,170,0.0,2.0,38,0.00,,---,0.00,VWS V14.01,2013-10-18 07:25:00,
2013-10-18 00:30:00,55.3,30.1,29.95,SE,143,2.0,2.0,38,0.00,,---,0.00,VWS V14.01,2013-10-18 07:30:00,
2013-10-18 00:35:00,55.5,31.0,29.95,SE,127,0.0,2.0,39,0.00,,---,0.00,VWS V14.01,2013-10-18 07:35:00,
2013-10-18 00:40:00,55.6,30.4,29.95,SE,142,0.0,2.0,38,0.00,,---,0.00,VWS V14.01,2013-10-18 07:40:00,
2013-10-18 00:45:00,55.3,30.8,29.95,South,181,0.0,0.0,39,0.00,,---,0.00,VWS V14.01,2013-10-18 07:45:00,
2013-10-18 00:50:00,54.9,30.4,29.95,SE,145,0.0,0.0,39,0.00,,---,0.00,VWS V14.01,2013-10-18 07:50:00,
2013-10-18 00:55:00,55.0,30.5,29.95,SE,139,0.0,0.0,39,0.00,,---,0.00,VWS V14.01,2013-10-18 07:55:00,
2013-10-18 01:00:00,54.7,30.9,29.96,SSE,162,0.0,0.0,40,0.00,,---,0.00,VWS V14.01,2013-10-18 08:00:00,
2013-10-18 01:06:00,54.3,30.5,29.95,South,169,2.0,2.0,40,0.00,,---,0.00,VWS V14.01,2013-10-18 08:06:00,
2013-10-18 01:11:00,54.6,30.2,29.95,South,191,1.0,4.0,39,0.00,,---,0.00,VWS V14.01,2013-10-18 08:11:00,
2013-10-18 01:16:00,54.8,30.3,29.95,SSW,197,0.0,0.0,39,0.00,,---,0.00,VWS V14.01,2013-10-18 08:16:00,
2013-10-18 01:21:00,54.3,30.5,29.95,SSW,195,0.0,0.0,40,0.00,,---,0.00,VWS V14.01,2013-10-18 08:21:00,
2013-10-18 01:26:00,54.0,30.2,29.95,SE,141,0.0,0.0,40,0.00,,---,0.00,VWS V14.01,2013-10-18 08:26:00,
2013-10-18 01:31:00,54.3,29.9,29.95,SE,132,0.0,0.0,39,0.00,,---,0.00,VWS V14.01,2013-10-18 08:31:00,
2013-10-18 01:36:00,54.5,30.1,29.95,SSE,158,0.0,0.0,39,0.00,,---,0.00,VWS V14.01,2013-10-18 08:36:00,
2013-10-18 01:41:00,54.5,30.1,29.95,South,172,0.0,0.0,39,0.00,,---,0.00,VWS V14.01,2013-10-18 08:41:00,
2013-10-18 01:46:00,54.2,30.4,29.95,SSE,165,2.0,3.0,40,0.00,,---,0.00,VWS V14.01,2013-10-18 08:46:00,
2013-10-18 01:51:00,54.0,30.2,29.95,South,172,1.0,3.0,40,0.00,,---,0.00,VWS V14.01,2013-10-18 08:51:00,
2013-10-18 01:56:00,54.0,29.6,29.95,SSE,155,0.0,3.0,39,0.00,,---,0.00,VWS V14.01,2013-10-18 08:56:00,
2013-10-18 02:01:00,54.0,30.2,29.95,SSE,164,0.0,0.0,40,0.00,,---,0.00,VWS V14.01,2013-10-18 09:01:00,
2013-10-18 02:06:00,53.9,30.1,29.95,SSE,163,0.0,0.0,40,0.00,,---,0.00,VWS V14.01,2013-10-18 09:06:00,
2013-10-18 02:11:00,53.8,30.1,29.95,SSE,159,0.0,0.0,40,0.00,,---,0.00,VWS V14.01,2013-10-18 09:11:00,
2013-10-18 02:16:00,53.3,30.2,29.95,SSE,165,0.0,0.0,41,0.00,,---,0.00,VWS V14.01,2013-10-18 09:16:00,
2013-10-18 02:21:00,52.9,30.5,29.95,SSE,159,0.0,0.0,42,0.00,,---,0.00,VWS V14.01,2013-10-18 09:21:00,
2013-10-18 02:26:00,52.7,30.3,29.96,South,174,0.0,0.0,42,0.00,,---,0.00,VWS V14.01,2013-10-18 09:26:00,
2013-10-18 02:31:00,52.6,30.2,29.96,South,174,0.0,0.0,42,0.00,,---,0.00,VWS V14.01,2013-10-18 09:31:00,
2013-10-18 02:36:00,52.6,30.2,29.96,South,172,0.0,0.0,42,0.00,,---,0.00,VWS V14.01,2013-10-18 09:36:00,
2013-10-18 02:41:00,52.3,30.5,29.96,South,172,0.0,0.0,43,0.00,,---,0.00,VWS V14.01,2013-10-18 09:41:00,
2013-10-18 02:46:00,51.4,30.8,29.96,South,173,0.0,0.0,45,0.00,,---,0.00,VWS V14.01,2013-10-18 09:46:00,
2013-10-18 02:51:00,50.5,30.5,29.97,South,174,0.0,0.0,46,0.00,,---,0.00,VWS V14.01,2013-10-18 09:51:00,
2013-10-18 02:56:00,50.7,30.1,29.97,South,173,0.0,0.0,45,0.00,,---,0.00,VWS V14.01,2013-10-18 09:56:00,
2013-10-18 03:01:00,50.5,30.5,29.97,South,173,0.0,0.0,46,0.00,,---,0.00,VWS V14.01,2013-10-18 10:01:00,
2013-10-18 03:06:00,49.8,30.4,29.97,WSW,243,0.0,0.0,47,0.00,,---,0.00,VWS V14.01,2013-10-18 10:06:00,
2013-10-18 03:11:00,49.6,31.7,29.97,SW,236,0.0,0.0,50,0.00,,---,0.00,VWS V14.01,2013-10-18 10:11:00,
2013-10-18 03:18:00,49.8,31.9,29.96,WSW,240,0.0,0.0,50,0.00,,---,0.00,VWS V14.01,2013-10-18 10:18:00,
2013-10-18 03:23:00,49.5,31.1,29.97,WSW,239,0.0,0.0,49,0.00,,---,0.00,VWS V14.01,2013-10-18 10:23:00,
2013-10-18 03:28:00,49.1,31.3,29.97,WSW,239,0.0,0.0,50,0.00,,---,0.00,VWS V14.01,2013-10-18 10:28:00,
2013-10-18 03:33:00,48.5,31.2,29.97,WSW,239,0.0,0.0,51,0.00,,---,0.00,VWS V14.01,2013-10-18 10:33:00,
2013-10-18 03:38:00,48.2,30.5,29.97,WSW,239,0.0,0.0,50,0.00,,---,0.00,VWS V14.01,2013-10-18 10:38:00,
2013-10-18 03:43:00,47.7,30.0,29.97,WSW,239,0.0,0.0,50,0.00,,---,0.00,VWS V14.01,2013-10-18 10:43:00,
2013-10-18 03:48:00,47.7,30.5,29.97,SSE,168,0.0,0.0,51,0.00,,---,0.00,VWS V14.01,2013-10-18 10:48:00,
2013-10-18 03:53:00,48.0,30.8,29.97,South,169,0.0,0.0,51,0.00,,---,0.00,VWS V14.01,2013-10-18 10:53:00,
2013-10-18 03:58:00,48.2,30.9,29.97,South,183,0.0,0.0,51,0.00,,---,0.00,VWS V14.01,2013-10-18 10:58:00,
2013-10-18 04:03:00,48.3,31.0,29.97,SSE,156,1.0,2.0,51,0.00,,---,0.00,VWS V14.01,2013-10-18 11:03:00,
2013-10-18 04:08:00,48.5,31.2,29.97,SSE,163,0.0,2.0,51,0.00,,---,0.00,VWS V14.01,2013-10-18 11:08:00,
2013-10-18 04:13:00,49.1,30.8,29.97,SE,134,2.0,2.0,49,0.00,,---,0.00,VWS V14.01,2013-10-18 11:13:00,
2013-10-18 04:18:00,49.9,30.5,29.97,SSE,150,2.0,2.0,47,0.00,,---,0.00,VWS V14.01,2013-10-18 11:18:00,
2013-10-18 04:23:00,50.4,30.4,29.97,SSE,162,3.0,3.0,46,0.00,,---,0.00,VWS V14.01,2013-10-18 11:23:00,
2013-10-18 04:28:00,50.0,30.6,29.97,SSE,155,2.0,3.0,47,0.00,,---,0.00,VWS V14.01,2013-10-18 11:28:00,
2013-10-18 04:33:00,50.0,30.6,29.97,SSE,166,3.0,3.0,47,0.00,,---,0.00,VWS V14.01,2013-10-18 11:33:00,
2013-10-18 04:38:00,50.1,30.7,29.97,SSE,155,1.0,3.0,47,0.00,,---,0.00,VWS V14.01,2013-10-18 11:38:00,
2013-10-18 04:43:00,50.1,30.7,29.97,SSE,150,2.0,3.0,47,0.00,,---,0.00,VWS V14.01,2013-10-18 11:43:00,
2013-10-18 04:48:00,49.9,31.0,29.98,SE,146,0.0,1.0,48,0.00,,---,0.00,VWS V14.01,2013-10-18 11:48:00,
2013-10-18 04:53:00,49.0,30.7,29.98,NNE,23,0.0,3.0,49,0.00,,---,0.00,VWS V14.01,2013-10-18 11:53:00,
2013-10-18 04:58:00,48.1,30.8,29.98,ENE,58,0.0,3.0,51,0.00,,---,0.00,VWS V14.01,2013-10-18 11:58:00,
2013-10-18 05:03:00,49.1,30.8,29.98,SE,134,0.0,1.0,49,0.00,,---,0.00,VWS V14.01,2013-10-18 12:03:00,
2013-10-18 05:08:00,48.6,31.3,29.98,SSE,155,0.0,1.0,51,0.00,,---,0.00,VWS V14.01,2013-10-18 12:08:00,
2013-10-18 05:13:00,48.3,31.0,29.98,SSE,155,0.0,1.0,51,0.00,,---,0.00,VWS V14.01,2013-10-18 12:13:00,
2013-10-18 05:18:00,48.2,31.4,29.99,SSE,155,0.0,0.0,52,0.00,,---,0.00,VWS V14.01,2013-10-18 12:18:00,
2013-10-18 05:23:00,47.6,31.3,29.99,SSW,212,0.0,0.0,53,0.00,,---,0.00,VWS V14.01,2013-10-18 12:23:00,
2013-10-18 05:28:00,47.5,31.2,29.99,SSW,212,0.0,0.0,53,0.00,,---,0.00,VWS V14.01,2013-10-18 12:28:00,
2013-10-18 05:33:00,47.5,31.2,29.99,SSW,212,0.0,0.0,53,0.00,,---,0.00,VWS V14.01,2013-10-18 12:33:00,
2013-10-18 05:38:00,46.8,32.0,29.99,SSW,210,1.0,2.0,56,0.00,,---,0.00,VWS V14.01,2013-10-18 12:38:00,
2013-10-18 05:43:00,46.5,32.1,29.99,SSW,207,0.0,3.0,57,0.00,,---,0.00,VWS V14.01,2013-10-18 12:43:00,
2013-10-18 05:48:00,46.3,31.5,29.99,SSW,196,0.0,0.0,56,0.00,,---,0.00,VWS V14.01,2013-10-18 12:48:00,
2013-10-18 05:53:00,46.6,31.3,29.99,SSW,198,0.0,0.0,55,0.00,,---,0.00,VWS V14.01,2013-10-18 12:53:00,
2013-10-18 05:58:00,46.9,31.1,29.99,SSW,194,0.0,0.0,54,0.00,,---,0.00,VWS V14.01,2013-10-18 12:58:00,
2013-10-18 06:03:00,47.6,31.3,29.99,South,186,0.0,0.0,53,0.00,,---,0.00,VWS V14.01,2013-10-18 13:03:00,
2013-10-18 06:08:00,48.0,31.2,29.99,South,184,0.0,0.0,52,0.00,,---,0.00,VWS V14.01,2013-10-18 13:08:00,
2013-10-18 06:13:00,48.5,30.7,30.00,South,183,0.0,0.0,50,0.00,,---,0.00,VWS V14.01,2013-10-18 13:13:00,
2013-10-18 06:18:00,48.4,31.6,30.00,South,184,0.0,0.0,52,0.00,,---,0.00,VWS V14.01,2013-10-18 13:18:00,
2013-10-18 06:23:00,47.7,31.9,30.00,South,184,0.0,0.0,54,0.00,,---,0.00,VWS V14.01,2013-10-18 13:23:00,
2013-10-18 06:28:00,46.8,31.5,30.00,South,184,0.0,0.0,55,0.00,,---,0.00,VWS V14.01,2013-10-18 13:28:00,
2013-10-18 06:33:00,46.3,31.0,30.00,South,184,0.0,0.0,55,0.00,,---,0.00,VWS V14.01,2013-10-18 13:33:00,
2013-10-18 06:38:00,46.1,31.7,30.00,South,186,0.0,0.0,57,0.00,,---,0.00,VWS V14.01,2013-10-18 13:38:00,
2013-10-18 06:43:00,45.9,31.5,30.00,SSW,203,0.0,0.0,57,0.00,,---,0.00,VWS V14.01,2013-10-18 13:43:00,
2013-10-18 06:49:00,45.6,31.7,30.01,SW,217,0.0,0.0,58,0.00,,---,0.00,VWS V14.01,2013-10-18 13:49:00,
2013-10-18 06:54:00,45.0,32.0,30.01,SW,217,0.0,0.0,60,0.00,,---,0.00,VWS V14.01,2013-10-18 13:54:00,
2013-10-18 06:59:00,44.7,32.1,30.01,SW,217,0.0,0.0,61,0.00,,---,0.00,VWS V14.01,2013-10-18 13:59:00,
2013-10-18 07:04:00,44.4,32.2,30.01,SW,217,0.0,0.0,62,0.00,,---,0.00,VWS V14.01,2013-10-18 14:04:00,
2013-10-18 07:09:00,44.5,32.3,30.01,SW,217,0.0,0.0,62,0.00,,---,0.00,VWS V14.01,2013-10-18 14:09:00,
2013-10-18 07:14:00,45.0,32.4,30.01,SW,217,0.0,0.0,61,0.00,,---,0.00,VWS V14.01,2013-10-18 14:14:00,
2013-10-18 07:19:00,45.4,32.8,30.02,SW,217,0.0,0.0,61,0.00,,---,0.00,VWS V14.01,2013-10-18 14:19:00,
2013-10-18 07:24:00,45.4,32.8,30.02,SW,217,0.0,0.0,61,0.00,,---,0.00,VWS V14.01,2013-10-18 14:24:00,
2013-10-18 07:29:00,45.5,32.4,30.02,SW,217,0.0,0.0,60,0.00,,---,0.00,VWS V14.01,2013-10-18 14:29:00,
2013-10-18 07:34:00,46.1,32.6,30.02,SW,217,0.0,0.0,59,0.00,,---,0.00,VWS V14.01,2013-10-18 14:34:00,
2013-10-18 07:39:00,46.4,32.4,30.02,SW,217,0.0,0.0,58,0.00,,---,0.00,VWS V14.01,2013-10-18 14:39:00,
2013-10-18 07:44:00,46.7,33.2,30.02,SW,217,0.0,0.0,59,0.00,,---,0.00,VWS V14.01,2013-10-18 14:44:00,
2013-10-18 07:49:00,47.0,33.0,30.03,SW,215,0.0,0.0,58,0.00,,---,0.00,VWS V14.01,2013-10-18 14:49:00,
2013-10-18 07:54:00,47.8,33.3,30.03,SW,215,0.0,0.0,57,0.00,,---,0.00,VWS V14.01,2013-10-18 14:54:00,
2013-10-18 07:59:00,48.8,32.9,30.03,SW,217,0.0,0.0,54,0.00,,---,0.00,VWS V14.01,2013-10-18 14:59:00,
2013-10-18 08:04:00,49.2,32.3,30.03,SW,217,0.0,0.0,52,0.00,,---,0.00,VWS V14.01,2013-10-18 15:04:00,
2013-10-18 08:09:00,49.5,32.6,30.04,SW,217,0.0,0.0,52,0.00,,---,0.00,VWS V14.01,2013-10-18 15:09:00,
2013-10-18 08:14:00,50.1,31.2,30.04,SW,217,0.0,0.0,48,0.00,,---,0.00,VWS V14.01,2013-10-18 15:14:00,
2013-10-18 08:19:00,50.9,31.4,30.04,SW,217,0.0,0.0,47,0.00,,---,0.00,VWS V14.01,2013-10-18 15:19:00,
2013-10-18 08:24:00,51.8,30.0,30.04,SW,217,0.0,0.0,43,0.00,,---,0.00,VWS V14.01,2013-10-18 15:24:00,
2013-10-18 08:29:00,52.4,30.6,30.04,SW,217,0.0,0.0,43,0.00,,---,0.00,VWS V14.01,2013-10-18 15:29:00,
2013-10-18 08:34:00,54.5,31.3,30.04,SW,217,0.0,0.0,41,0.00,,---,0.00,VWS V14.01,2013-10-18 15:34:00,
2013-10-18 08:39:00,55.2,30.7,30.05,SW,217,0.0,0.0,39,0.00,,---,0.00,VWS V14.01,2013-10-18 15:39:00,
2013-10-18 08:44:00,55.6,30.4,30.05,SW,217,0.0,0.0,38,0.00,,---,0.00,VWS V14.01,2013-10-18 15:44:00,
2013-10-18 08:49:00,56.9,30.2,30.05,SW,217,0.0,0.0,36,0.00,,---,0.00,VWS V14.01,2013-10-18 15:49:00,
2013-10-18 08:54:00,56.1,28.8,30.05,SW,217,0.0,0.0,35,0.00,,---,0.00,VWS V14.01,2013-10-18 15:54:00,
2013-10-18 08:59:00,55.2,29.4,30.05,SW,214,0.0,0.0,37,0.00,,---,0.00,VWS V14.01,2013-10-18 15:59:00,
2013-10-18 09:04:00,55.3,30.1,30.05,NE,41,0.0,0.0,38,0.00,,---,0.00,VWS V14.01,2013-10-18 16:04:00,
2013-10-18 09:09:00,55.6,29.8,30.05,NE,56,0.0,0.0,37,0.00,,---,0.00,VWS V14.01,2013-10-18 16:09:00,
2013-10-18 09:14:00,56.3,29.7,30.05,East,99,0.0,0.0,36,0.00,,---,0.00,VWS V14.01,2013-10-18 16:14:00,
2013-10-18 09:19:00,56.9,29.5,30.05,East,94,0.0,0.0,35,0.00,,---,0.00,VWS V14.01,2013-10-18 16:19:00,
2013-10-18 09:24:00,57.8,29.6,30.05,East,84,0.0,0.0,34,0.00,,---,0.00,VWS V14.01,2013-10-18 16:24:00,
2013-10-18 09:29:00,58.3,29.3,30.06,North,8,0.0,0.0,33,0.00,,---,0.00,VWS V14.01,2013-10-18 16:29:00,
2013-10-18 09:34:00,58.3,30.1,30.06,NNE,16,0.0,0.0,34,0.00,,---,0.00,VWS V14.01,2013-10-18 16:34:00,
2013-10-18 09:39:00,58.4,29.4,30.06,NE,44,0.0,0.0,33,0.00,,---,0.00,VWS V14.01,2013-10-18 16:39:00,
2013-10-18 09:44:00,58.5,29.5,30.06,NE,37,0.0,0.0,33,0.00,,---,0.00,VWS V14.01,2013-10-18 16:44:00,
2013-10-18 09:49:00,58.9,29.9,30.06,North,350,0.0,0.0,33,0.00,,---,0.00,VWS V14.01,2013-10-18 16:49:00,
2013-10-18 09:54:00,59.6,29.7,30.06,NE,34,0.0,0.0,32,0.00,,---,0.00,VWS V14.01,2013-10-18 16:54:00,
2013-10-18 09:59:00,60.1,30.2,30.06,North,351,0.0,0.0,32,0.00,,---,0.00,VWS V14.01,2013-10-18 16:59:00,
2013-10-18 10:04:00,60.5,29.7,30.06,NE,37,2.0,3.0,31,0.00,,---,0.00,VWS V14.01,2013-10-18 17:04:00,
2013-10-18 10:09:00,61.1,30.3,30.06,NW,309,2.0,3.0,31,0.00,,---,0.00,VWS V14.01,2013-10-18 17:09:00,
2013-10-18 10:14:00,61.4,30.5,30.06,WSW,256,0.0,0.0,31,0.00,,---,0.00,VWS V14.01,2013-10-18 17:14:00,
2013-10-18 10:19:00,62.0,30.2,30.05,NW,326,0.0,0.0,30,0.00,,---,0.00,VWS V14.01,2013-10-18 17:19:00,
2013-10-18 10:24:00,62.5,29.8,30.05,West,266,0.0,0.0,29,0.00,,---,0.00,VWS V14.01,2013-10-18 17:24:00,
2013-10-18 10:29:00,63.0,30.3,30.05,NW,309,1.0,1.0,29,0.00,,---,0.00,VWS V14.01,2013-10-18 17:29:00,
2013-10-18 10:34:00,63.6,30.8,30.05,West,281,0.0,1.0,29,0.00,,---,0.00,VWS V14.01,2013-10-18 17:34:00,
2013-10-18 10:36:00,64.0,31.1,30.05,NE,39,0.0,1.0,29,0.00,,---,0.00,VWS V14.01,2013-10-18 17:36:00,
2013-10-18 10:41:00,64.4,29.7,30.05,NNE,21,0.0,2.0,27,0.00,,---,0.00,VWS V14.01,2013-10-18 17:41:00,
2013-10-18 10:46:00,64.7,30.0,30.05,West,277,1.0,2.0,27,0.00,,---,0.00,VWS V14.01,2013-10-18 17:46:00,
2013-10-18 10:51:00,64.8,30.1,30.05,North,353,2.0,5.0,27,0.00,,---,0.00,VWS V14.01,2013-10-18 17:51:00,
2013-10-18 10:56:00,65.4,30.6,30.05,North,353,3.0,5.0,27,0.00,,---,0.00,VWS V14.01,2013-10-18 17:56:00,
2013-10-18 11:01:00,65.7,30.8,30.05,NNE,23,4.0,4.0,27,0.00,,---,0.00,VWS V14.01,2013-10-18 18:01:00,
2013-10-18 11:06:00,66.2,28.4,30.05,NNW,345,2.0,4.0,24,0.00,,---,0.00,VWS V14.01,2013-10-18 18:06:00,
2013-10-18 11:11:00,66.3,29.5,30.05,NNW,348,3.0,4.0,25,0.00,,---,0.00,VWS V14.01,2013-10-18 18:11:00,
2013-10-18 11:16:00,66.4,29.5,30.05,WNW,301,0.0,1.0,25,0.00,,---,0.00,VWS V14.01,2013-10-18 18:16:00,
2013-10-18 11:21:00,67.1,29.1,30.05,West,269,0.0,1.0,24,0.00,,---,0.00,VWS V14.01,2013-10-18 18:21:00,
2013-10-18 11:26:00,67.7,30.6,30.04,WNW,301,2.0,3.0,25,0.00,,---,0.00,VWS V14.01,2013-10-18 18:26:00,
2013-10-18 11:31:00,68.0,29.9,30.04,North,352,0.0,0.0,24,0.00,,---,0.00,VWS V14.01,2013-10-18 18:31:00,
2013-10-18 11:36:00,68.6,29.4,30.04,North,9,6.0,6.0,23,0.00,,---,0.00,VWS V14.01,2013-10-18 18:36:00,
2013-10-18 11:41:00,68.7,28.4,30.04,NNE,27,1.0,7.0,22,0.00,,---,0.00,VWS V14.01,2013-10-18 18:41:00,
2013-10-18 11:46:00,68.9,29.6,30.04,NW,311,0.0,2.0,23,0.00,,---,0.00,VWS V14.01,2013-10-18 18:46:00,
2013-10-18 11:51:00,69.0,28.6,30.04,WNW,285,0.0,4.0,22,0.00,,---,0.00,VWS V14.01,2013-10-18 18:51:00,
2013-10-18 11:56:00,69.4,28.9,30.04,NNW,328,0.0,6.0,22,0.00,,---,0.00,VWS V14.01,2013-10-18 18:56:00,
2013-10-18 12:01:00,69.4,28.9,30.04,NNE,26,0.0,4.0,22,0.00,,---,0.00,VWS V14.01,2013-10-18 19:01:00,
2013-10-18 12:06:00,69.8,28.1,30.03,NE,44,0.0,4.0,21,0.00,,---,0.00,VWS V14.01,2013-10-18 19:06:00,
2013-10-18 12:11:00,70.3,28.5,30.03,NNE,21,3.0,7.0,21,0.00,,---,0.00,VWS V14.01,2013-10-18 19:11:00,
2013-10-18 12:16:00,70.8,27.8,30.03,ENE,75,2.0,5.0,20,0.00,,---,0.00,VWS V14.01,2013-10-18 19:16:00,
2013-10-18 12:21:00,71.6,27.2,30.02,NE,41,6.0,7.0,19,0.00,,---,0.00,VWS V14.01,2013-10-18 19:21:00,
2013-10-18 12:26:00,71.9,27.4,30.02,NE,42,5.0,10.0,19,0.00,,---,0.00,VWS V14.01,2013-10-18 19:26:00,
2013-10-18 12:31:00,72.0,27.5,30.02,North,349,6.0,6.0,19,0.00,,---,0.00,VWS V14.01,2013-10-18 19:31:00,
2013-10-18 12:36:00,72.2,27.7,30.02,NE,44,5.0,8.0,19,0.00,,---,0.00,VWS V14.01,2013-10-18 19:36:00,
2013-10-18 12:41:00,72.2,27.7,30.02,NE,41,4.0,8.0,19,0.00,,---,0.00,VWS V14.01,2013-10-18 19:41:00,
2013-10-18 12:46:00,72.6,26.7,30.01,NE,44,7.0,11.0,18,0.00,,---,0.00,VWS V14.01,2013-10-18 19:46:00,
2013-10-18 12:51:00,73.4,27.4,30.01,ESE,105,0.0,11.0,18,0.00,,---,0.00,VWS V14.01,2013-10-18 19:51:00,
2013-10-18 12:56:00,73.8,27.7,30.01,NNW,347,3.0,11.0,18,0.00,,---,0.00,VWS V14.01,2013-10-18 19:56:00,
2013-10-18 13:02:00,74.5,26.9,30.01,NNE,29,6.0,6.0,17,0.00,,---,0.00,VWS V14.01,2013-10-18 20:02:00,
2013-10-18 13:07:00,74.7,27.0,30.00,NE,46,7.0,12.0,17,0.00,,---,0.00,VWS V14.01,2013-10-18 20:07:00,
2013-10-18 13:12:00,75.1,25.9,30.00,NNE,14,9.0,12.0,16,0.00,,---,0.00,VWS V14.01,2013-10-18 20:12:00,
2013-10-18 13:17:00,75.5,24.7,30.00,NE,46,12.0,14.0,15,0.00,,---,0.00,VWS V14.01,2013-10-18 20:17:00,
2013-10-18 13:22:00,75.6,26.3,30.00,ENE,63,4.0,14.0,16,0.00,,---,0.00,VWS V14.01,2013-10-18 20:22:00,
2013-10-18 13:27:00,75.5,24.7,29.99,NNE,23,6.0,14.0,15,0.00,,---,0.00,VWS V14.01,2013-10-18 20:27:00,
2013-10-18 13:32:00,75.6,24.7,29.99,North,6,6.0,11.0,15,0.00,,---,0.00,VWS V14.01,2013-10-18 20:32:00,
2013-10-18 13:37:00,76.0,25.1,29.99,NE,41,3.0,11.0,15,0.00,,---,0.00,VWS V14.01,2013-10-18 20:37:00,
2013-10-18 13:42:00,76.6,25.5,29.99,ENE,74,6.0,11.0,15,0.00,,---,0.00,VWS V14.01,2013-10-18 20:42:00,
2013-10-18 13:47:00,76.8,25.7,29.98,SE,136,4.0,6.0,15,0.00,,---,0.00,VWS V14.01,2013-10-18 20:47:00,
2013-10-18 13:52:00,77.3,24.4,29.98,NE,49,3.0,11.0,14,0.00,,---,0.00,VWS V14.01,2013-10-18 20:52:00,
2013-10-18 13:57:00,77.2,24.4,29.98,NE,42,9.0,11.0,14,0.00,,---,0.00,VWS V14.01,2013-10-18 20:57:00,
2013-10-18 14:02:00,77.2,24.4,29.98,NE,44,8.0,9.0,14,0.00,,---,0.00,VWS V14.01,2013-10-18 21:02:00,
2013-10-18 14:07:00,77.3,24.4,29.98,NNE,18,4.0,15.0,14,0.00,,---,0.00,VWS V14.01,2013-10-18 21:07:00,
2013-10-18 14:12:00,77.5,24.6,29.97,NE,50,4.0,15.0,14,0.00,,---,0.00,VWS V14.01,2013-10-18 21:12:00,
2013-10-18 14:17:00,77.9,23.1,29.97,ENE,67,6.0,13.0,13,0.00,,---,0.00,VWS V14.01,2013-10-18 21:17:00,
2013-10-18 14:22:00,77.8,24.8,29.97,NE,44,6.0,14.0,14,0.00,,---,0.00,VWS V14.01,2013-10-18 21:22:00,
2013-10-18 14:27:00,78.1,23.3,29.97,NNE,21,10.0,14.0,13,0.00,,---,0.00,VWS V14.01,2013-10-18 21:27:00,
2013-10-18 14:32:00,77.9,23.1,29.97,NNE,15,7.0,12.0,13,0.00,,---,0.00,VWS V14.01,2013-10-18 21:32:00,
2013-10-18 14:37:00,78.1,25.1,29.97,NE,42,6.0,12.0,14,0.00,,---,0.00,VWS V14.01,2013-10-18 21:37:00,
2013-10-18 14:42:00,78.2,23.4,29.97,NNE,27,10.0,13.0,13,0.00,,---,0.00,VWS V14.01,2013-10-18 21:42:00,
2013-10-18 14:47:00,78.0,23.2,29.97,NE,50,6.0,10.0,13,0.00,,---,0.00,VWS V14.01,2013-10-18 21:47:00,
2013-10-18 14:52:00,77.9,24.9,29.97,ENE,66,6.0,10.0,14,0.00,,---,0.00,VWS V14.01,2013-10-18 21:52:00,
2013-10-18 14:57:00,78.3,23.5,29.96,ENE,63,6.0,11.0,13,0.00,,---,0.00,VWS V14.01,2013-10-18 21:57:00,
2013-10-18 15:02:00,78.1,23.3,29.96,NE,39,2.0,12.0,13,0.00,,---,0.00,VWS V14.01,2013-10-18 22:02:00,
2013-10-18 15:07:00,78.2,23.4,29.96,ENE,77,9.0,12.0,13,0.00,,---,0.00,VWS V14.01,2013-10-18 22:07:00,
2013-10-18 15:12:00,78.5,21.7,29.96,ENE,69,7.0,13.0,12,0.00,,---,0.00,VWS V14.01,2013-10-18 22:12:00,
2013-10-18 15:17:00,78.7,21.9,29.96,ENE,61,9.0,11.0,12,0.00,,---,0.00,VWS V14.01,2013-10-18 22:17:00,
2013-10-18 15:22:00,78.8,22.0,29.96,NE,43,9.0,12.0,12,0.00,,---,0.00,VWS V14.01,2013-10-18 22:22:00,
2013-10-18 15:27:00,78.7,21.9,29.96,NE,53,1.0,12.0,12,0.00,,---,0.00,VWS V14.01,2013-10-18 22:27:00,
2013-10-18 15:32:00,78.7,21.9,29.96,NNE,33,2.0,12.0,12,0.00,,---,0.00,VWS V14.01,2013-10-18 22:32:00,
2013-10-18 15:37:00,78.8,22.0,29.96,ENE,62,5.0,14.0,12,0.00,,---,0.00,VWS V14.01,2013-10-18 22:37:00,
2013-10-18 15:42:00,79.0,20.0,29.95,ENE,74,7.0,14.0,11,0.00,,---,0.00,VWS V14.01,2013-10-18 22:42:00,
2013-10-18 15:47:00,79.1,22.2,29.95,ENE,72,6.0,7.0,12,0.00,,---,0.00,VWS V14.01,2013-10-18 22:47:00,
2013-10-18 15:52:00,79.1,20.1,29.95,NE,50,7.0,9.0,11,0.00,,---,0.00,VWS V14.01,2013-10-18 22:52:00,
2013-10-18 15:57:00,79.1,20.1,29.95,NNE,33,2.0,9.0,11,0.00,,---,0.00,VWS V14.01,2013-10-18 22:57:00,
2013-10-18 16:02:00,79.1,22.2,29.95,ENE,72,8.0,8.0,12,0.00,,---,0.00,VWS V14.01,2013-10-18 23:02:00,
2013-10-18 16:07:00,79.2,20.2,29.95,ENE,65,3.0,11.0,11,0.00,,---,0.00,VWS V14.01,2013-10-18 23:07:00,
2013-10-18 16:12:00,79.4,20.4,29.95,NE,51,7.0,11.0,11,0.00,,---,0.00,VWS V14.01,2013-10-18 23:12:00,
2013-10-18 16:17:00,79.6,22.6,29.95,NNE,33,5.0,12.0,12,0.00,,---,0.00,VWS V14.01,2013-10-18 23:17:00,
2013-10-18 16:22:00,79.3,20.3,29.95,NE,53,8.0,13.0,11,0.00,,---,0.00,VWS V14.01,2013-10-18 23:22:00,
2013-10-18 16:27:00,79.1,20.1,29.95,NE,50,8.0,13.0,11,0.00,,---,0.00,VWS V14.01,2013-10-18 23:27:00,
2013-10-18 16:32:00,79.2,20.2,29.95,NE,53,9.0,10.0,11,0.00,,---,0.00,VWS V14.01,2013-10-18 23:32:00,
2013-10-18 16:37:00,79.0,20.0,29.95,NNE,33,2.0,10.0,11,0.00,,---,0.00,VWS V14.01,2013-10-18 23:37:00,
2013-10-18 16:42:00,79.0,20.0,29.95,NE,44,3.0,10.0,11,0.00,,---,0.00,VWS V14.01,2013-10-18 23:42:00,
2013-10-18 16:47:00,79.0,20.0,29.95,NE,51,7.0,7.0,11,0.00,,---,0.00,VWS V14.01,2013-10-18 23:47:00,
2013-10-18 16:52:00,78.8,19.9,29.94,NE,49,3.0,11.0,11,0.00,,---,0.00,VWS V14.01,2013-10-18 23:52:00,
2013-10-18 16:58:00,78.9,20.0,29.94,NNE,30,4.0,11.0,11,0.00,,---,0.00,VWS V14.01,2013-10-18 23:58:00,
2013-10-18 17:03:00,79.0,20.0,29.94,NNE,27,5.0,6.0,11,0.00,,---,0.00,VWS V14.01,2013-10-19 00:03:00,
2013-10-18 17:08:00,78.8,19.9,29.94,NE,46,5.0,10.0,11,0.00,,---,0.00,VWS V14.01,2013-10-19 00:08:00,
2013-10-18 17:13:00,78.7,19.8,29.94,ENE,60,3.0,10.0,11,0.00,,---,0.00,VWS V14.01,2013-10-19 00:13:00,
2013-10-18 17:18:00,78.7,21.9,29.94,NE,41,4.0,5.0,12,0.00,,---,0.00,VWS V14.01,2013-10-19 00:18:00,
2013-10-18 17:23:00,78.7,19.8,29.94,ENE,68,4.0,5.0,11,0.00,,---,0.00,VWS V14.01,2013-10-19 00:23:00,
2013-10-18 17:28:00,78.6,19.8,29.94,NNE,33,2.0,6.0,11,0.00,,---,0.00,VWS V14.01,2013-10-19 00:28:00,
2013-10-18 17:33:00,78.5,19.7,29.94,ENE,65,2.0,7.0,11,0.00,,---,0.00,VWS V14.01,2013-10-19 00:33:00,
2013-10-18 17:38:00,78.4,21.6,29.94,ENE,58,6.0,8.0,12,0.00,,---,0.00,VWS V14.01,2013-10-19 00:38:00,
2013-10-18 17:43:00,78.3,21.6,29.94,NE,50,3.0,8.0,12,0.00,,---,0.00,VWS V14.01,2013-10-19 00:43:00,
2013-10-18 17:48:00,78.1,21.4,29.95,NNE,30,5.0,6.0,12,0.00,,---,0.00,VWS V14.01,2013-10-19 00:48:00,
2013-10-18 17:53:00,77.8,21.2,29.95,NE,37,2.0,6.0,12,0.00,,---,0.00,VWS V14.01,2013-10-19 00:53:00,
2013-10-18 17:58:00,77.3,20.8,29.95,NE,38,3.0,6.0,12,0.00,,---,0.00,VWS V14.01,2013-10-19 00:58:00,
2013-10-18 18:03:00,76.9,22.4,29.95,NE,41,0.0,3.0,13,0.00,,---,0.00,VWS V14.01,2013-10-19 01:03:00,
2013-10-18 18:08:00,76.4,22.0,29.95,NE,41,0.0,3.0,13,0.00,,---,0.00,VWS V14.01,2013-10-19 01:08:00,
2013-10-18 18:13:00,76.0,23.4,29.95,NE,56,0.0,3.0,14,0.00,,---,0.00,VWS V14.01,2013-10-19 01:13:00,
2013-10-18 18:18:00,75.5,23.0,29.95,NE,56,0.0,0.0,14,0.00,,---,0.00,VWS V14.01,2013-10-19 01:18:00,
2013-10-18 18:23:00,75.0,22.6,29.95,NE,51,0.0,0.0,14,0.00,,---,0.00,VWS V14.01,2013-10-19 01:23:00,
2013-10-18 18:28:00,74.7,22.4,29.96,ENE,60,0.0,0.0,14,0.00,,---,0.00,VWS V14.01,2013-10-19 01:28:00,
2013-10-18 18:33:00,74.2,23.6,29.96,ENE,64,0.0,0.0,15,0.00,,---,0.00,VWS V14.01,2013-10-19 01:33:00,
2013-10-18 18:38:00,73.6,24.7,29.96,ENE,77,0.0,0.0,16,0.00,,---,0.00,VWS V14.01,2013-10-19 01:38:00,
2013-10-18 18:43:00,72.9,24.1,29.96,ENE,77,0.0,0.0,16,0.00,,---,0.00,VWS V14.01,2013-10-19 01:43:00,
2013-10-18 18:48:00,72.2,25.0,29.96,ENE,77,0.0,0.0,17,0.00,,---,0.00,VWS V14.01,2013-10-19 01:48:00,
2013-10-18 18:53:00,71.1,25.5,29.97,SSE,165,0.0,0.0,18,0.00,,---,0.00,VWS V14.01,2013-10-19 01:53:00,
2013-10-18 18:58:00,69.9,27.0,29.97,SSW,204,0.0,0.0,20,0.00,,---,0.00,VWS V14.01,2013-10-19 01:58:00,
2013-10-18 19:03:00,68.6,27.1,29.97,SSW,203,0.0,0.0,21,0.00,,---,0.00,VWS V14.01,2013-10-19 02:03:00,
2013-10-18 19:08:00,67.8,27.6,29.97,South,188,0.0,0.0,22,0.00,,---,0.00,VWS V14.01,2013-10-19 02:08:00,
2013-10-18 19:13:00,67.4,28.4,29.97,South,191,0.0,0.0,23,0.00,,---,0.00,VWS V14.01,2013-10-19 02:13:00,
2013-10-18 19:18:00,67.5,27.4,29.97,SSE,162,0.0,0.0,22,0.00,,---,0.00,VWS V14.01,2013-10-19 02:18:00,
2013-10-18 19:23:00,67.9,27.7,29.97,SSE,167,0.0,0.0,22,0.00,,---,0.00,VWS V14.01,2013-10-19 02:23:00,
2013-10-18 19:28:00,67.0,28.0,29.97,South,186,2.0,3.0,23,0.00,,---,0.00,VWS V14.01,2013-10-19 02:28:00,
2013-10-18 19:33:00,66.2,27.3,29.97,SSE,168,0.0,3.0,23,0.00,,---,0.00,VWS V14.01,2013-10-19 02:33:00,
2013-10-18 19:38:00,65.7,28.0,29.97,South,174,2.0,3.0,24,0.00,,---,0.00,VWS V14.01,2013-10-19 02:38:00,
2013-10-18 19:43:00,65.2,28.5,29.98,SSW,203,0.0,3.0,25,0.00,,---,0.00,VWS V14.01,2013-10-19 02:43:00,
2013-10-18 19:48:00,64.2,28.6,29.98,SSW,193,0.0,0.0,26,0.00,,---,0.00,VWS V14.01,2013-10-19 02:48:00,
2013-10-18 19:53:00,63.5,29.0,29.98,SSW,198,0.0,0.0,27,0.00,,---,0.00,VWS V14.01,2013-10-19 02:53:00,
2013-10-18 19:58:00,63.1,28.6,29.98,South,188,0.0,0.0,27,0.00,,---,0.00,VWS V14.01,2013-10-19 02:58:00,
2013-10-18 20:03:00,62.9,28.4,29.98,South,191,0.0,0.0,27,0.00,,---,0.00,VWS V14.01,2013-10-19 03:03:00,
2013-10-18 20:08:00,62.7,28.3,29.98,SSW,193,0.0,0.0,27,0.00,,---,0.00,VWS V14.01,2013-10-19 03:08:00,
2013-10-18 20:13:00,62.3,27.9,29.98,SSW,197,0.0,0.0,27,0.00,,---,0.00,VWS V14.01,2013-10-19 03:13:00,
2013-10-18 20:19:00,62.2,26.9,29.98,South,188,0.0,0.0,26,0.00,,---,0.00,VWS V14.01,2013-10-19 03:19:00,
2013-10-18 20:24:00,62.1,25.9,29.98,South,172,0.0,0.0,25,0.00,,---,0.00,VWS V14.01,2013-10-19 03:24:00,
2013-10-18 20:29:00,62.2,26.0,29.98,SSE,158,0.0,0.0,25,0.00,,---,0.00,VWS V14.01,2013-10-19 03:29:00,
2013-10-18 20:34:00,62.6,25.3,29.98,SSE,155,0.0,0.0,24,0.00,,---,0.00,VWS V14.01,2013-10-19 03:34:00,
2013-10-18 20:39:00,63.0,24.6,29.98,SSE,158,0.0,0.0,23,0.00,,---,0.00,VWS V14.01,2013-10-19 03:39:00,
2013-10-18 20:44:00,63.0,25.7,29.98,SE,139,0.0,0.0,24,0.00,,---,0.00,VWS V14.01,2013-10-19 03:44:00,
2013-10-18 20:49:00,62.7,25.4,29.99,SSE,163,0.0,0.0,24,0.00,,---,0.00,VWS V14.01,2013-10-19 03:49:00,
2013-10-18 20:54:00,61.7,25.5,29.99,NNW,328,0.0,2.0,25,0.00,,---,0.00,VWS V14.01,2013-10-19 03:54:00,
2013-10-18 20:59:00,61.1,26.9,29.99,NW,318,0.0,0.0,27,0.00,,---,0.00,VWS V14.01,2013-10-19 03:59:00,
2013-10-18 21:01:00,60.8,26.6,29.99,NW,316,0.0,0.0,27,0.00,,---,0.00,VWS V14.01,2013-10-19 04:01:00,
2013-10-18 21:04:00,60.2,26.1,29.99,NW,316,0.0,0.0,27,0.00,,---,0.00,VWS V14.01,2013-10-19 04:04:00,
2013-10-18 21:06:00,60.0,26.8,29.99,WSW,241,0.0,0.0,28,0.00,,---,0.00,VWS V14.01,2013-10-19 04:06:00,
2013-10-18 21:07:00,60.0,26.8,29.99,SW,228,0.0,0.0,28,0.00,,---,0.00,VWS V14.01,2013-10-19 04:07:00,
2013-10-18 21:12:00,59.4,28.0,29.99,SW,215,0.0,0.0,30,0.00,,---,0.00,VWS V14.01,2013-10-19 04:12:00,
2013-10-18 21:17:00,58.3,28.6,29.99,SW,217,0.0,0.0,32,0.00,,---,0.00,VWS V14.01,2013-10-19 04:17:00,
2013-10-18 21:18:00,58.1,27.6,29.99,SW,215,0.0,0.0,31,0.00,,---,0.00,VWS V14.01,2013-10-19 04:18:00,
2013-10-18 21:23:00,58.0,27.6,30.00,SSW,201,0.0,0.0,31,0.00,,---,0.00,VWS V14.01,2013-10-19 04:23:00,
2013-10-18 21:28:00,58.2,27.7,30.00,SSW,194,0.0,0.0,31,0.00,,---,0.00,VWS V14.01,2013-10-19 04:28:00,
2013-10-18 21:33:00,58.7,27.4,30.00,SSW,198,0.0,0.0,30,0.00,,---,0.00,VWS V14.01,2013-10-19 04:33:00,
2013-10-18 21:38:00,58.8,26.6,30.00,SSW,194,1.0,1.0,29,0.00,,---,0.00,VWS V14.01,2013-10-19 04:38:00,
2013-10-18 21:43:00,59.4,26.3,30.00,South,183,0.0,1.0,28,0.00,,---,0.00,VWS V14.01,2013-10-19 04:43:00,
2013-10-18 21:48:00,58.9,25.9,30.00,South,180,0.0,0.0,28,0.00,,---,0.00,VWS V14.01,2013-10-19 04:48:00,
2013-10-18 21:53:00,58.8,26.6,30.00,South,174,0.0,0.0,29,0.00,,---,0.00,VWS V14.01,2013-10-19 04:53:00,
2013-10-18 21:58:00,58.4,27.1,30.00,SSE,162,0.0,1.0,30,0.00,,---,0.00,VWS V14.01,2013-10-19 04:58:00,
2013-10-18 22:03:00,58.2,26.1,30.00,South,184,0.0,0.0,29,0.00,,---,0.00,VWS V14.01,2013-10-19 05:03:00,
2013-10-18 22:08:00,58.3,26.2,30.00,SSE,162,0.0,0.0,29,0.00,,---,0.00,VWS V14.01,2013-10-19 05:08:00,
2013-10-18 22:13:00,58.5,25.5,30.00,South,180,0.0,0.0,28,0.00,,---,0.00,VWS V14.01,2013-10-19 05:13:00,
2013-10-18 22:18:00,58.4,26.3,30.01,South,188,0.0,0.0,29,0.00,,---,0.00,VWS V14.01,2013-10-19 05:18:00,
2013-10-18 22:23:00,58.0,26.0,30.01,South,170,0.0,0.0,29,0.00,,---,0.00,VWS V14.01,2013-10-19 05:23:00,
2013-10-18 22:28:00,57.9,26.7,30.01,SSE,160,0.0,0.0,30,0.00,,---,0.00,VWS V14.01,2013-10-19 05:28:00,
2013-10-18 22:33:00,57.7,26.5,30.01,SSE,153,0.0,0.0,30,0.00,,---,0.00,VWS V14.01,2013-10-19 05:33:00,
2013-10-18 22:38:00,57.5,26.3,30.01,SSE,158,0.0,0.0,30,0.00,,---,0.00,VWS V14.01,2013-10-19 05:38:00,
2013-10-18 22:44:00,57.3,26.2,30.01,SSE,160,0.0,0.0,30,0.00,,---,0.00,VWS V14.01,2013-10-19 05:44:00,
2013-10-18 22:49:00,57.2,26.1,30.01,SSE,150,0.0,0.0,30,0.00,,---,0.00,VWS V14.01,2013-10-19 05:49:00,
2013-10-18 22:54:00,57.5,25.5,30.01,SSE,149,0.0,0.0,29,0.00,,---,0.00,VWS V14.01,2013-10-19 05:54:00,
2013-10-18 22:59:00,57.6,25.6,30.01,SSE,149,0.0,0.0,29,0.00,,---,0.00,VWS V14.01,2013-10-19 05:59:00,
2013-10-18 23:04:00,57.4,26.2,30.01,SSE,156,0.0,0.0,30,0.00,,---,0.00,VWS V14.01,2013-10-19 06:04:00,
2013-10-18 23:09:00,57.1,25.2,30.01,SSE,156,0.0,0.0,29,0.00,,---,0.00,VWS V14.01,2013-10-19 06:09:00,
2013-10-18 23:14:00,56.9,25.8,30.01,SE,142,0.0,0.0,30,0.00,,---,0.00,VWS V14.01,2013-10-19 06:14:00,
2013-10-18 23:19:00,56.6,26.3,30.01,SE,142,0.0,0.0,31,0.00,,---,0.00,VWS V14.01,2013-10-19 06:19:00,
2013-10-18 23:24:00,55.9,26.5,30.01,SE,143,0.0,0.0,32,0.00,,---,0.00,VWS V14.01,2013-10-19 06:24:00,
2013-10-18 23:29:00,55.4,26.8,30.01,SSW,198,0.0,0.0,33,0.00,,---,0.00,VWS V14.01,2013-10-19 06:29:00,
2013-10-18 23:34:00,54.9,27.1,30.01,South,186,0.0,0.0,34,0.00,,---,0.00,VWS V14.01,2013-10-19 06:34:00,
2013-10-18 23:39:00,54.6,27.5,30.01,SE,145,0.0,1.0,35,0.00,,---,0.00,VWS V14.01,2013-10-19 06:39:00,
2013-10-18 23:44:00,54.3,27.2,30.01,SE,135,0.0,0.0,35,0.00,,---,0.00,VWS V14.01,2013-10-19 06:44:00,
2013-10-18 23:49:00,54.7,26.9,30.01,SE,131,0.0,0.0,34,0.00,,---,0.00,VWS V14.01,2013-10-19 06:49:00,
2013-10-18 23:54:00,54.9,26.4,30.01,SSE,165,0.0,0.0,33,0.00,,---,0.00,VWS V14.01,2013-10-19 06:54:00,
2013-10-18 23:59:00,55.4,25.3,30.01,SSE,163,0.0,0.0,31,0.00,,---,0.00,VWS V14.01,2013-10-19 06:59:00,